Location: ?????????
(55.6553°N, 38.9075°E)
Time: 05:02:05
(UTC+00:00)

Cosmos 1437 Rocket - Pass Details

Date: 18 October 2019
Orbit: 507 x 562 km, 81.2° (Epoch: 18 November)

Event Time Altitude Azimuth Distance (km) Brightness Sun altitude
Rises 03:16:30 0° 199° (SSW) 2,612 6.2 -6.9°
Reaches altitude 10° 03:18:38 10° 201° (SSW) 1,727 5.2 -6.6°
Maximum altitude 03:22:24 70° 286° (WNW) 546 2.6 -6.0°
Drops below altitude 10° 03:26:12 10° 11° (N) 1,740 5.4 -5.5°
Sets 03:28:22 0° 14° (NNE) 2,633 6.4 -5.2°
